owner,sensor,date,latitude,longitude,air_pressure(mBar),qcFlag 
TABS,ioos:station:wmo:42044:1,2002-10-01T00:09:00Z,26.1914,-97.0507,1012.11,11111222 
TABS,ioos:station:wmo:42044:1,2002-10-01T00:39:00Z,26.1914,-97.0507,1012.11,11111222 
TABS,ioos:station:wmo:42044:1,2002-10-01T01:09:00Z,26.1914,-97.0507,1012.3,11111222 
TABS,ioos:station:wmo:42044:1,2002-10-01T01:39:00Z,26.1914,-97.0507,1012.61,11111222 
TABS,ioos:station:wmo:42044:1,2002-10-01T02:09:00Z,26.1914,-97.0507,1012.93,11111222 
TABS,ioos:station:wmo:42044:1,2002-10-01T02:39:00Z,26.1914,-97.0507,1013.25,11111222 
TABS,ioos:station:wmo:42044:1,2002-10-01T03:09:00Z,26.1914,-97.0507,1013.44,11111222 
TABS,ioos:station:wmo:42044:1,2002-10-01T03:39:00Z,26.1914,-97.0507,1013.63,11111222 
TABS,ioos:station:wmo:42044:1,2002-10-01T04:09:00Z,26.1914,-97.0507,1013.63,11111222 
TABS,ioos:station:wmo:42044:1,2002-10-01T04:39:00Z,26.1914,-97.0507,1013.57,11111222 
TABS,ioos:station:wmo:42044:1,2002-10-01T05:09:00Z,26.1914,-97.0507,1013.44,11111222 
TABS,ioos:station:wmo:42044:1,2002-10-01T05:39:00Z,26.1914,-97.0507,1013.31,11111222 
TABS,ioos:station:wmo:42044:1,2002-10-01T06:09:00Z,26.1914,-97.0507,1013.31,11111222 
TABS,ioos:station:wmo:42044:1,2002-10-01T06:39:00Z,26.1914,-97.0507,1013.31,11111222 
TABS,ioos:station:wmo:42044:1,2002-10-01T07:09:00Z,26.1914,-97.0507,1013.31,11111222 
TABS,ioos:station:wmo:42044:1,2002-10-01T07:39:00Z,26.1914,-97.0507,1013.06,11111222 
TABS,ioos:station:wmo:42044:1,2002-10-01T08:09:00Z,26.1914,-97.0507,1012.74,11111222 
TABS,ioos:station:wmo:42044:1,2002-10-01T08:39:00Z,26.1914,-97.0507,1012.49,11111222 
TABS,ioos:station:wmo:42044:1,2002-10-01T09:09:00Z,26.1914,-97.0507,1012.23,11111222 
TABS,ioos:station:wmo:42044:1,2002-10-01T09:39:00Z,26.1914,-97.0507,1012.3,11111222 
TABS,ioos:station:wmo:42044:1,2002-10-01T10:09:00Z,26.1914,-97.0507,1012.3,11111222 
TABS,ioos:station:wmo:42044:1,2002-10-01T10:39:00Z,26.1914,-97.0507,1012.49,11111222 
TABS,ioos:station:wmo:42044:1,2002-10-01T11:09:00Z,26.1914,-97.0507,1012.55,11111222 
TABS,ioos:station:wmo:42044:1,2002-10-01T11:39:00Z,26.1914,-97.0507,1012.68,11111222 
TABS,ioos:station:wmo:42044:1,2002-10-01T12:09:00Z,26.1914,-97.0507,1012.68,11111222 
TABS,ioos:station:wmo:42044:1,2002-10-01T12:39:00Z,26.1914,-97.0507,1012.87,11111222 
TABS,ioos:station:wmo:42044:1,2002-10-01T13:09:00Z,26.1914,-97.0507,1013.25,11111222 
TABS,ioos:station:wmo:42044:1,2002-10-01T13:39:00Z,26.1914,-97.0507,1013.57,11111222 
TABS,ioos:station:wmo:42044:1,2002-10-01T14:09:00Z,26.1914,-97.0507,1013.44,11111222 
TABS,ioos:station:wmo:42044:1,2002-10-01T14:39:00Z,26.1914,-97.0507,1013.76,11111222 
TABS,ioos:station:wmo:42044:1,2002-10-01T15:09:00Z,26.1914,-97.0507,1013.88,11111222 
TABS,ioos:station:wmo:42044:1,2002-10-01T15:39:00Z,26.1914,-97.0507,1014.01,11111222 
TABS,ioos:station:wmo:42044:1,2002-10-01T16:09:00Z,26.1914,-97.0507,1014.2,11111222 
TABS,ioos:station:wmo:42044:1,2002-10-01T16:39:00Z,26.1914,-97.0507,1014.14,11111222 
TABS,ioos:station:wmo:42044:1,2002-10-01T17:09:00Z,26.1914,-97.0507,1014.14,11111222 
TABS,ioos:station:wmo:42044:1,2002-10-01T17:39:00Z,26.1914,-97.0507,1013.76,11111222 
TABS,ioos:station:wmo:42044:1,2002-10-01T18:09:00Z,26.1914,-97.0507,1014.26,11111222 
TABS,ioos:station:wmo:42044:1,2002-10-01T18:39:00Z,26.1914,-97.0507,1013.38,11111222 
TABS,ioos:station:wmo:42044:1,2002-10-01T19:09:00Z,26.1914,-97.0507,1012.93,11111222 
TABS,ioos:station:wmo:42044:1,2002-10-01T19:39:00Z,26.1914,-97.0507,1013.0,11111222 
TABS,ioos:station:wmo:42044:1,2002-10-01T20:09:00Z,26.1914,-97.0507,1012.74,11111222 
TABS,ioos:station:wmo:42044:1,2002-10-01T20:39:00Z,26.1914,-97.0507,1012.49,11111222 
TABS,ioos:station:wmo:42044:1,2002-10-01T21:09:00Z,26.1914,-97.0507,1012.36,11111222 
TABS,ioos:station:wmo:42044:1,2002-10-01T21:39:00Z,26.1914,-97.0507,1012.3,11111222 
TABS,ioos:station:wmo:42044:1,2002-10-01T22:09:00Z,26.1914,-97.0507,1012.17,11111222 
TABS,ioos:station:wmo:42044:1,2002-10-01T22:39:00Z,26.1914,-97.0507,1012.04,11111222 
TABS,ioos:station:wmo:42044:1,2002-10-01T23:09:00Z,26.1914,-97.0507,1011.98,11111222 
TABS,ioos:station:wmo:42044:1,2002-10-01T23:39:00Z,26.1914,-97.0507,1011.85,11111222 
TABS,ioos:station:wmo:42044:1,2002-10-02T00:09:00Z,26.1914,-97.0507,1011.85,11111222 
TABS,ioos:station:wmo:42044:1,2002-10-02T00:39:00Z,26.1914,-97.0507,1011.98,11111222 
TABS,ioos:station:wmo:42044:1,2002-10-02T01:09:00Z,26.1914,-97.0507,1012.17,11111222 
TABS,ioos:station:wmo:42044:1,2002-10-02T01:39:00Z,26.1914,-97.0507,1012.23,11111222 
TABS,ioos:station:wmo:42044:1,2002-10-02T02:09:00Z,26.1914,-97.0507,1012.55,11111222 
TABS,ioos:station:wmo:42044:1,2002-10-02T02:39:00Z,26.1914,-97.0507,1012.87,11111222 
TABS,ioos:station:wmo:42044:1,2002-10-02T03:09:00Z,26.1914,-97.0507,1013.12,11111222 
TABS,ioos:station:wmo:42044:1,2002-10-02T03:39:00Z,26.1914,-97.0507,1013.31,11111222 
TABS,ioos:station:wmo:42044:1,2002-10-02T04:09:00Z,26.1914,-97.0507,1013.25,11111222 
TABS,ioos:station:wmo:42044:1,2002-10-02T04:39:00Z,26.1914,-97.0507,1013.19,11111222 
TABS,ioos:station:wmo:42044:1,2002-10-02T05:09:00Z,26.1914,-97.0507,1012.8,11111222 
TABS,ioos:station:wmo:42044:1,2002-10-02T05:39:00Z,26.1914,-97.0507,1012.42,11111222 
TABS,ioos:station:wmo:42044:1,2002-10-02T06:09:00Z,26.1914,-97.0507,1012.23,11111222 
TABS,ioos:station:wmo:42044:1,2002-10-02T06:39:00Z,26.1914,-97.0507,1012.11,11111222 
TABS,ioos:station:wmo:42044:1,2002-10-02T07:09:00Z,26.1914,-97.0507,1011.92,11111222 
TABS,ioos:station:wmo:42044:1,2002-10-02T07:39:00Z,26.1914,-97.0507,1011.66,11111222 
TABS,ioos:station:wmo:42044:1,2002-10-02T08:09:00Z,26.1914,-97.0507,1011.28,11111222 
TABS,ioos:station:wmo:42044:1,2002-10-02T08:39:00Z,26.1914,-97.0507,1011.09,11111222 
TABS,ioos:station:wmo:42044:1,2002-10-02T09:09:00Z,26.1914,-97.0507,1010.96,11111222 
TABS,ioos:station:wmo:42044:1,2002-10-02T09:39:00Z,26.1914,-97.0507,1010.77,11111222 
TABS,ioos:station:wmo:42044:1,2002-10-02T10:09:00Z,26.1914,-97.0507,1010.65,11111222 
TABS,ioos:station:wmo:42044:1,2002-10-02T10:39:00Z,26.1914,-97.0507,1010.77,11111222 
TABS,ioos:station:wmo:42044:1,2002-10-02T11:09:00Z,26.1914,-97.0507,1010.84,11111222 
TABS,ioos:station:wmo:42044:1,2002-10-02T11:39:00Z,26.1914,-97.0507,1010.96,11111222 
TABS,ioos:station:wmo:42044:1,2002-10-02T12:09:00Z,26.1914,-97.0507,1010.96,11111222 
TABS,ioos:station:wmo:42044:1,2002-10-02T12:39:00Z,26.1914,-97.0507,1010.96,11111222 
TABS,ioos:station:wmo:42044:1,2002-10-02T13:09:00Z,26.1914,-97.0507,1011.54,11111222 
TABS,ioos:station:wmo:42044:1,2002-10-02T13:39:00Z,26.1914,-97.0507,1011.73,11111222 
TABS,ioos:station:wmo:42044:1,2002-10-02T14:09:00Z,26.1914,-97.0507,1012.11,11111222 
TABS,ioos:station:wmo:42044:1,2002-10-02T14:39:00Z,26.1914,-97.0507,1011.98,11111222 
TABS,ioos:station:wmo:42044:1,2002-10-02T15:09:00Z,26.1914,-97.0507,1012.3,11111222 
TABS,ioos:station:wmo:42044:1,2002-10-02T15:39:00Z,26.1914,-97.0507,1012.36,11111222 
TABS,ioos:station:wmo:42044:1,2002-10-02T16:09:00Z,26.1914,-97.0507,1012.49,11111222 
TABS,ioos:station:wmo:42044:1,2002-10-02T16:39:00Z,26.1914,-97.0507,1012.36,11111222 
TABS,ioos:station:wmo:42044:1,2002-10-02T17:09:00Z,26.1914,-97.0507,1012.17,11111222 
TABS,ioos:station:wmo:42044:1,2002-10-02T17:39:00Z,26.1914,-97.0507,1011.73,11111222 
TABS,ioos:station:wmo:42044:1,2002-10-02T18:09:00Z,26.1914,-97.0507,1011.34,11111222 
TABS,ioos:station:wmo:42044:1,2002-10-02T18:39:00Z,26.1914,-97.0507,1011.03,11111222 
TABS,ioos:station:wmo:42044:1,2002-10-02T19:09:00Z,26.1914,-97.0507,1010.71,11111222 
TABS,ioos:station:wmo:42044:1,2002-10-02T19:39:00Z,26.1914,-97.0507,1010.46,11111222 
TABS,ioos:station:wmo:42044:1,2002-10-02T20:09:00Z,26.1914,-97.0507,1010.33,11111222 
TABS,ioos:station:wmo:42044:1,2002-10-02T20:39:00Z,26.1914,-97.0507,1010.01,11111222 
TABS,ioos:station:wmo:42044:1,2002-10-02T21:09:00Z,26.1914,-97.0507,1009.88,11111222 
TABS,ioos:station:wmo:42044:1,2002-10-02T21:39:00Z,26.1914,-97.0507,1009.69,11111222 
TABS,ioos:station:wmo:42044:1,2002-10-02T22:09:00Z,26.1914,-97.0507,1009.31,11111222 
TABS,ioos:station:wmo:42044:1,2002-10-02T22:39:00Z,26.1914,-97.0507,1009.12,11111222 
TABS,ioos:station:wmo:42044:1,2002-10-02T23:09:00Z,26.1914,-97.0507,1008.74,11111222 
TABS,ioos:station:wmo:42044:1,2002-10-02T23:39:00Z,26.1914,-97.0507,1008.87,11111222 
TABS,ioos:station:wmo:42044:1,2002-10-03T00:09:00Z,26.1914,-97.0507,1008.93,11111222 
TABS,ioos:station:wmo:42044:1,2002-10-03T00:39:00Z,26.1914,-97.0507,1009.12,11111222 
TABS,ioos:station:wmo:42044:1,2002-10-03T01:09:00Z,26.1914,-97.0507,1009.25,11111222 
TABS,ioos:station:wmo:42044:1,2002-10-03T01:39:00Z,26.1914,-97.0507,1009.57,11111222 
TABS,ioos:station:wmo:42044:1,2002-10-03T02:09:00Z,26.1914,-97.0507,1009.69,11111222 
TABS,ioos:station:wmo:42044:1,2002-10-03T02:39:00Z,26.1914,-97.0507,1009.82,11111222 
TABS,ioos:station:wmo:42044:1,2002-10-03T03:09:00Z,26.1914,-97.0507,1009.82,11111222 
TABS,ioos:station:wmo:42044:1,2002-10-03T03:39:00Z,26.1914,-97.0507,1009.88,11111222 
TABS,ioos:station:wmo:42044:1,2002-10-03T04:09:00Z,26.1914,-97.0507,1010.01,11111222 
TABS,ioos:station:wmo:42044:1,2002-10-03T04:39:00Z,26.1914,-97.0507,1009.88,11111222 
TABS,ioos:station:wmo:42044:1,2002-10-03T05:09:00Z,26.1914,-97.0507,1009.44,11111222 
TABS,ioos:station:wmo:42044:1,2002-10-03T05:39:00Z,26.1914,-97.0507,1009.06,11111222 
TABS,ioos:station:wmo:42044:1,2002-10-03T06:09:00Z,26.1914,-97.0507,1009.06,11111222 
TABS,ioos:station:wmo:42044:1,2002-10-03T06:39:00Z,26.1914,-97.0507,1008.81,11111222 
TABS,ioos:station:wmo:42044:1,2002-10-03T07:09:00Z,26.1914,-97.0507,1008.55,11111222 
TABS,ioos:station:wmo:42044:1,2002-10-03T07:39:00Z,26.1914,-97.0507,1008.17,11111222 
TABS,ioos:station:wmo:42044:1,2002-10-03T08:09:00Z,26.1914,-97.0507,1007.79,11111222 
TABS,ioos:station:wmo:42044:1,2002-10-03T08:39:00Z,26.1914,-97.0507,1007.6,11111222 
TABS,ioos:station:wmo:42044:1,2002-10-03T09:09:00Z,26.1914,-97.0507,1007.41,11111222 
TABS,ioos:station:wmo:42044:1,2002-10-03T09:39:00Z,26.1914,-97.0507,1007.47,11111222 
TABS,ioos:station:wmo:42044:1,2002-10-03T10:09:00Z,26.1914,-97.0507,1007.47,11111222 
TABS,ioos:station:wmo:42044:1,2002-10-03T10:39:00Z,26.1914,-97.0507,1007.66,11111222 
TABS,ioos:station:wmo:42044:1,2002-10-03T11:09:00Z,26.1914,-97.0507,1007.85,11111222 
TABS,ioos:station:wmo:42044:1,2002-10-03T11:39:00Z,26.1914,-97.0507,1007.92,11111222 
TABS,ioos:station:wmo:42044:1,2002-10-03T12:09:00Z,26.1914,-97.0507,1007.98,11111222 
TABS,ioos:station:wmo:42044:1,2002-10-03T12:39:00Z,26.1914,-97.0507,1008.36,11111222 
TABS,ioos:station:wmo:42044:1,2002-10-03T13:09:00Z,26.1914,-97.0507,1009.06,11111222 
TABS,ioos:station:wmo:42044:1,2002-10-03T13:39:00Z,26.1914,-97.0507,1008.93,11111222 
TABS,ioos:station:wmo:42044:1,2002-10-03T14:09:00Z,26.1914,-97.0507,1009.57,11111222 
TABS,ioos:station:wmo:42044:1,2002-10-03T14:39:00Z,26.1914,-97.0507,1009.57,11111222 
TABS,ioos:station:wmo:42044:1,2002-10-03T15:09:00Z,26.1914,-97.0507,1010.01,11111222 
TABS,ioos:station:wmo:42044:1,2002-10-03T15:39:00Z,26.1914,-97.0507,1009.76,11111222 
TABS,ioos:station:wmo:42044:1,2002-10-03T16:09:00Z,26.1914,-97.0507,1010.2,11111222 
TABS,ioos:station:wmo:42044:1,2002-10-03T16:39:00Z,26.1914,-97.0507,1010.46,11111222 
TABS,ioos:station:wmo:42044:1,2002-10-03T17:09:00Z,26.1914,-97.0507,1010.33,11111222 
TABS,ioos:station:wmo:42044:1,2002-10-03T17:39:00Z,26.1914,-97.0507,1010.14,11111222 
TABS,ioos:station:wmo:42044:1,2002-10-03T18:09:00Z,26.1914,-97.0507,1009.44,11111222 
TABS,ioos:station:wmo:42044:1,2002-10-03T18:39:00Z,26.1914,-97.0507,1008.74,11111222 
TABS,ioos:station:wmo:42044:1,2002-10-03T19:09:00Z,26.1914,-97.0507,1008.55,11111222 
TABS,ioos:station:wmo:42044:1,2002-10-03T19:39:00Z,26.1914,-97.0507,1008.3,11111222 
TABS,ioos:station:wmo:42044:1,2002-10-03T20:09:00Z,26.1914,-97.0507,1008.04,11111222 
TABS,ioos:station:wmo:42044:1,2002-10-03T20:39:00Z,26.1914,-97.0507,1007.54,11111222 
TABS,ioos:station:wmo:42044:1,2002-10-03T21:09:00Z,26.1914,-97.0507,1007.16,11111222 
TABS,ioos:station:wmo:42044:1,2002-10-03T21:39:00Z,26.1914,-97.0507,1007.16,11111222 
TABS,ioos:station:wmo:42044:1,2002-10-03T22:09:00Z,26.1914,-97.0507,1007.28,11111222 
TABS,ioos:station:wmo:42044:1,2002-10-03T22:39:00Z,26.1914,-97.0507,1006.9,11111222 
TABS,ioos:station:wmo:42044:1,2002-10-03T23:09:00Z,26.1914,-97.0507,1007.09,11111222 
TABS,ioos:station:wmo:42044:1,2002-10-03T23:39:00Z,26.1914,-97.0507,1006.9,11111222 
TABS,ioos:station:wmo:42044:1,2002-10-04T00:09:00Z,26.1914,-97.0507,1006.65,11111222 
TABS,ioos:station:wmo:42044:1,2002-10-04T00:39:00Z,26.1914,-97.0507,1006.84,11111222 
TABS,ioos:station:wmo:42044:1,2002-10-04T01:09:00Z,26.1914,-97.0507,1006.9,11111222 
TABS,ioos:station:wmo:42044:1,2002-10-04T01:39:00Z,26.1914,-97.0507,1007.22,11111222 
TABS,ioos:station:wmo:42044:1,2002-10-04T02:09:00Z,26.1914,-97.0507,1007.73,11111222 
TABS,ioos:station:wmo:42044:1,2002-10-04T02:39:00Z,26.1914,-97.0507,1008.04,11111222 
TABS,ioos:station:wmo:42044:1,2002-10-04T03:09:00Z,26.1914,-97.0507,1008.36,11111222 
TABS,ioos:station:wmo:42044:1,2002-10-04T03:39:00Z,26.1914,-97.0507,1008.62,11111222 
TABS,ioos:station:wmo:42044:1,2002-10-04T04:09:00Z,26.1914,-97.0507,1008.81,11111222 
TABS,ioos:station:wmo:42044:1,2002-10-04T04:39:00Z,26.1914,-97.0507,1008.87,11111222 
TABS,ioos:station:wmo:42044:1,2002-10-04T05:09:00Z,26.1914,-97.0507,1008.87,11111222 
TABS,ioos:station:wmo:42044:1,2002-10-04T05:39:00Z,26.1914,-97.0507,1008.87,11111222 
TABS,ioos:station:wmo:42044:1,2002-10-04T06:09:00Z,26.1914,-97.0507,1008.62,11111222 
TABS,ioos:station:wmo:42044:1,2002-10-04T06:39:00Z,26.1914,-97.0507,1008.49,11111222 
TABS,ioos:station:wmo:42044:1,2002-10-04T07:09:00Z,26.1914,-97.0507,1008.36,11111222 
TABS,ioos:station:wmo:42044:1,2002-10-04T07:39:00Z,26.1914,-97.0507,1008.3,11111222 
TABS,ioos:station:wmo:42044:1,2002-10-04T08:09:00Z,26.1914,-97.0507,1008.17,11111222 
TABS,ioos:station:wmo:42044:1,2002-10-04T08:39:00Z,26.1914,-97.0507,1008.23,11111222 
TABS,ioos:station:wmo:42044:1,2002-10-04T09:09:00Z,26.1914,-97.0507,1008.17,11111222 
TABS,ioos:station:wmo:42044:1,2002-10-04T09:39:00Z,26.1914,-97.0507,1008.11,11111222 
TABS,ioos:station:wmo:42044:1,2002-10-04T10:09:00Z,26.1914,-97.0507,1008.17,11111222 
TABS,ioos:station:wmo:42044:1,2002-10-04T10:39:00Z,26.1914,-97.0507,1008.42,11111222 
TABS,ioos:station:wmo:42044:1,2002-10-04T11:09:00Z,26.1914,-97.0507,1008.68,11111222 
TABS,ioos:station:wmo:42044:1,2002-10-04T11:39:00Z,26.1914,-97.0507,1009.06,11111222 
TABS,ioos:station:wmo:42044:1,2002-10-04T12:09:00Z,26.1914,-97.0507,1009.25,11111222 
TABS,ioos:station:wmo:42044:1,2002-10-04T12:39:00Z,26.1914,-97.0507,1009.69,11111222 
TABS,ioos:station:wmo:42044:1,2002-10-04T13:09:00Z,26.1914,-97.0507,1010.2,11111222 
TABS,ioos:station:wmo:42044:1,2002-10-04T13:39:00Z,26.1914,-97.0507,1010.39,11111222 
TABS,ioos:station:wmo:42044:1,2002-10-04T14:09:00Z,26.1914,-97.0507,1010.71,11111222 
TABS,ioos:station:wmo:42044:1,2002-10-04T14:39:00Z,26.1914,-97.0507,1011.03,11111222 
TABS,ioos:station:wmo:42044:1,2002-10-04T15:09:00Z,26.1914,-97.0507,1011.28,11111222 
TABS,ioos:station:wmo:42044:1,2002-10-04T15:39:00Z,26.1914,-97.0507,1011.54,11111222 
TABS,ioos:station:wmo:42044:1,2002-10-04T16:09:00Z,26.1914,-97.0507,1011.66,11111222 
TABS,ioos:station:wmo:42044:1,2002-10-04T16:39:00Z,26.1914,-97.0507,1011.79,11111222 
TABS,ioos:station:wmo:42044:1,2002-10-04T17:09:00Z,26.1914,-97.0507,1011.92,11111222 
TABS,ioos:station:wmo:42044:1,2002-10-04T17:39:00Z,26.1914,-97.0507,1011.92,11111222 
TABS,ioos:station:wmo:42044:1,2002-10-04T18:09:00Z,26.1914,-97.0507,1011.73,11111222 
TABS,ioos:station:wmo:42044:1,2002-10-04T18:39:00Z,26.1914,-97.0507,1011.54,11111222 
TABS,ioos:station:wmo:42044:1,2002-10-04T19:09:00Z,26.1914,-97.0507,1011.34,11111222 
TABS,ioos:station:wmo:42044:1,2002-10-04T19:39:00Z,26.1914,-97.0507,1011.15,11111222 
TABS,ioos:station:wmo:42044:1,2002-10-04T20:09:00Z,26.1914,-97.0507,1011.09,11111222 
TABS,ioos:station:wmo:42044:1,2002-10-04T20:39:00Z,26.1914,-97.0507,1011.09,11111222 
TABS,ioos:station:wmo:42044:1,2002-10-04T21:09:00Z,26.1914,-97.0507,1011.15,11111222 
TABS,ioos:station:wmo:42044:1,2002-10-04T21:39:00Z,26.1914,-97.0507,1011.09,11111222 
TABS,ioos:station:wmo:42044:1,2002-10-04T22:09:00Z,26.1914,-97.0507,1011.03,11111222 
TABS,ioos:station:wmo:42044:1,2002-10-04T22:39:00Z,26.1914,-97.0507,1010.96,11111222 
TABS,ioos:station:wmo:42044:1,2002-10-04T23:09:00Z,26.1914,-97.0507,1011.15,11111222 
TABS,ioos:station:wmo:42044:1,2002-10-04T23:39:00Z,26.1914,-97.0507,1010.96,11111222 
TABS,ioos:station:wmo:42044:1,2002-10-05T00:09:00Z,26.1914,-97.0507,1011.09,11111222 
TABS,ioos:station:wmo:42044:1,2002-10-05T00:39:00Z,26.1914,-97.0507,1011.28,11111222 
TABS,ioos:station:wmo:42044:1,2002-10-05T01:09:00Z,26.1914,-97.0507,1011.6,11111222 
TABS,ioos:station:wmo:42044:1,2002-10-05T01:39:00Z,26.1914,-97.0507,1012.04,11111222 
TABS,ioos:station:wmo:42044:1,2002-10-05T02:09:00Z,26.1914,-97.0507,1012.36,11111222 
TABS,ioos:station:wmo:42044:1,2002-10-05T02:39:00Z,26.1914,-97.0507,1012.68,11111222 
TABS,ioos:station:wmo:42044:1,2002-10-05T03:09:00Z,26.1914,-97.0507,1013.12,11111222 
TABS,ioos:station:wmo:42044:1,2002-10-05T03:39:00Z,26.1914,-97.0507,1013.25,11111222 
TABS,ioos:station:wmo:42044:1,2002-10-05T04:09:00Z,26.1914,-97.0507,1013.31,11111222 
TABS,ioos:station:wmo:42044:1,2002-10-05T04:39:00Z,26.1914,-97.0507,1013.5,11111222 
TABS,ioos:station:wmo:42044:1,2002-10-05T05:09:00Z,26.1914,-97.0507,1013.63,11111222 
TABS,ioos:station:wmo:42044:1,2002-10-05T05:39:00Z,26.1914,-97.0507,1013.63,11111222 
TABS,ioos:station:wmo:42044:1,2002-10-05T06:09:00Z,26.1914,-97.0507,1013.57,11111222 
TABS,ioos:station:wmo:42044:1,2002-10-05T06:39:00Z,26.1914,-97.0507,1013.57,11111222 
TABS,ioos:station:wmo:42044:1,2002-10-05T07:09:00Z,26.1914,-97.0507,1013.31,11111222 
TABS,ioos:station:wmo:42044:1,2002-10-05T07:39:00Z,26.1914,-97.0507,1013.19,11111222 
TABS,ioos:station:wmo:42044:1,2002-10-05T08:09:00Z,26.1914,-97.0507,1012.93,11111222 
TABS,ioos:station:wmo:42044:1,2002-10-05T08:39:00Z,26.1914,-97.0507,1012.8,11111222 
TABS,ioos:station:wmo:42044:1,2002-10-05T09:09:00Z,26.1914,-97.0507,1012.87,11111222 
TABS,ioos:station:wmo:42044:1,2002-10-05T09:39:00Z,26.1914,-97.0507,1012.8,11111222 
TABS,ioos:station:wmo:42044:1,2002-10-05T10:09:00Z,26.1914,-97.0507,1012.74,11111222 
TABS,ioos:station:wmo:42044:1,2002-10-05T10:39:00Z,26.1914,-97.0507,1013.19,11111222 
TABS,ioos:station:wmo:42044:1,2002-10-05T11:09:00Z,26.1914,-97.0507,1013.5,11111222 
TABS,ioos:station:wmo:42044:1,2002-10-05T11:39:00Z,26.1914,-97.0507,1014.01,11111222 
TABS,ioos:station:wmo:42044:1,2002-10-05T12:09:00Z,26.1914,-97.0507,1014.39,11111222 
TABS,ioos:station:wmo:42044:1,2002-10-05T12:39:00Z,26.1914,-97.0507,1012.74,11111222 
TABS,ioos:station:wmo:42044:1,2002-10-05T13:09:00Z,26.1914,-97.0507,1009.76,11111222 
TABS,ioos:station:wmo:42044:1,2002-10-05T13:39:00Z,26.1914,-97.0507,1016.04,11111222 
TABS,ioos:station:wmo:42044:1,2002-10-05T14:09:00Z,26.1914,-97.0507,1015.53,11111222 
TABS,ioos:station:wmo:42044:1,2002-10-05T14:39:00Z,26.1914,-97.0507,1015.85,11111222 
TABS,ioos:station:wmo:42044:1,2002-10-05T15:09:00Z,26.1914,-97.0507,1014.71,11111222 
TABS,ioos:station:wmo:42044:1,2002-10-05T15:39:00Z,26.1914,-97.0507,1010.77,11111222 
TABS,ioos:station:wmo:42044:1,2002-10-05T16:09:00Z,26.1914,-97.0507,1012.49,11111222 
TABS,ioos:station:wmo:42044:1,2002-10-05T16:39:00Z,26.1914,-97.0507,1012.87,11111222 
TABS,ioos:station:wmo:42044:1,2002-10-05T17:09:00Z,26.1914,-97.0507,1017.06,11111222 
TABS,ioos:station:wmo:42044:1,2002-10-05T17:39:00Z,26.1914,-97.0507,1019.53,11111222 
TABS,ioos:station:wmo:42044:1,2002-10-05T18:09:00Z,26.1914,-97.0507,1017.18,11111222 
TABS,ioos:station:wmo:42044:1,2002-10-05T18:39:00Z,26.1914,-97.0507,1015.28,11111222 
TABS,ioos:station:wmo:42044:1,2002-10-05T19:09:00Z,26.1914,-97.0507,1013.5,11111222 
TABS,ioos:station:wmo:42044:1,2002-10-05T19:39:00Z,26.1914,-97.0507,1011.41,11111222 
TABS,ioos:station:wmo:42044:1,2002-10-05T20:09:00Z,26.1914,-97.0507,1011.03,11111222 
TABS,ioos:station:wmo:42044:1,2002-10-05T20:39:00Z,26.1914,-97.0507,1015.66,11111222 
TABS,ioos:station:wmo:42044:1,2002-10-05T21:09:00Z,26.1914,-97.0507,1015.28,11111222 
TABS,ioos:station:wmo:42044:1,2002-10-05T21:39:00Z,26.1914,-97.0507,1014.71,11111222 
TABS,ioos:station:wmo:42044:1,2002-10-05T22:09:00Z,26.1914,-97.0507,1015.15,11111222 
TABS,ioos:station:wmo:42044:1,2002-10-05T22:39:00Z,26.1914,-97.0507,1015.34,11111222 
TABS,ioos:station:wmo:42044:1,2002-10-05T23:09:00Z,26.1914,-97.0507,1015.47,11111222 
TABS,ioos:station:wmo:42044:1,2002-10-05T23:39:00Z,26.1914,-97.0507,1015.6,11111222 
TABS,ioos:station:wmo:42044:1,2002-10-06T00:09:00Z,26.1914,-97.0507,1015.53,11111222 
TABS,ioos:station:wmo:42044:1,2002-10-06T00:39:00Z,26.1914,-97.0507,1009.38,11111222 
TABS,ioos:station:wmo:42044:1,2002-10-06T01:09:00Z,26.1914,-97.0507,1014.58,11111222 
TABS,ioos:station:wmo:42044:1,2002-10-06T01:39:00Z,26.1914,-97.0507,1014.58,11111222 
TABS,ioos:station:wmo:42044:1,2002-10-06T02:09:00Z,26.1914,-97.0507,1014.77,11111222 
TABS,ioos:station:wmo:42044:1,2002-10-06T02:39:00Z,26.1914,-97.0507,1015.28,11111222 
TABS,ioos:station:wmo:42044:1,2002-10-06T03:09:00Z,26.1914,-97.0507,1015.53,11111222 
TABS,ioos:station:wmo:42044:1,2002-10-06T03:39:00Z,26.1914,-97.0507,1015.92,11111222 
TABS,ioos:station:wmo:42044:1,2002-10-06T04:09:00Z,26.1914,-97.0507,1016.04,11111222 
TABS,ioos:station:wmo:42044:1,2002-10-06T04:39:00Z,26.1914,-97.0507,1016.04,11111222 
TABS,ioos:station:wmo:42044:1,2002-10-06T05:09:00Z,26.1914,-97.0507,1015.98,11111222 
TABS,ioos:station:wmo:42044:1,2002-10-06T05:39:00Z,26.1914,-97.0507,1015.92,11111222 
TABS,ioos:station:wmo:42044:1,2002-10-06T06:09:00Z,26.1914,-97.0507,1016.04,11111222 
TABS,ioos:station:wmo:42044:1,2002-10-06T06:39:00Z,26.1914,-97.0507,1016.11,11111222 
TABS,ioos:station:wmo:42044:1,2002-10-06T07:09:00Z,26.1914,-97.0507,1016.11,11111222 
TABS,ioos:station:wmo:42044:1,2002-10-06T07:39:00Z,26.1914,-97.0507,1015.98,11111222 
TABS,ioos:station:wmo:42044:1,2002-10-06T08:09:00Z,26.1914,-97.0507,1015.79,11111222 
TABS,ioos:station:wmo:42044:1,2002-10-06T08:39:00Z,26.1914,-97.0507,1015.6,11111222 
TABS,ioos:station:wmo:42044:1,2002-10-06T09:09:00Z,26.1914,-97.0507,1015.41,11111222 
TABS,ioos:station:wmo:42044:1,2002-10-06T09:39:00Z,26.1914,-97.0507,1015.28,11111222 
TABS,ioos:station:wmo:42044:1,2002-10-06T10:09:00Z,26.1914,-97.0507,1015.47,11111222 
TABS,ioos:station:wmo:42044:1,2002-10-06T10:39:00Z,26.1914,-97.0507,1015.41,11111222 
TABS,ioos:station:wmo:42044:1,2002-10-06T11:09:00Z,26.1914,-97.0507,1015.53,11111222 
TABS,ioos:station:wmo:42044:1,2002-10-06T11:39:00Z,26.1914,-97.0507,1015.72,11111222 
TABS,ioos:station:wmo:42044:1,2002-10-06T12:09:00Z,26.1914,-97.0507,1015.92,11111222 
TABS,ioos:station:wmo:42044:1,2002-10-06T12:39:00Z,26.1914,-97.0507,1016.17,11111222 
TABS,ioos:station:wmo:42044:1,2002-10-06T13:09:00Z,26.1914,-97.0507,1016.36,11111222 
TABS,ioos:station:wmo:42044:1,2002-10-06T13:39:00Z,26.1914,-97.0507,1016.61,11111222 
TABS,ioos:station:wmo:42044:1,2002-10-06T14:09:00Z,26.1914,-97.0507,1016.42,11111222 
TABS,ioos:station:wmo:42044:1,2002-10-06T14:39:00Z,26.1914,-97.0507,1016.99,11111222 
TABS,ioos:station:wmo:42044:1,2002-10-06T15:09:00Z,26.1914,-97.0507,1017.12,11111222 
TABS,ioos:station:wmo:42044:1,2002-10-06T15:39:00Z,26.1914,-97.0507,1017.18,11111222 
TABS,ioos:station:wmo:42044:1,2002-10-06T16:09:00Z,26.1914,-97.0507,1017.25,11111222 
TABS,ioos:station:wmo:42044:1,2002-10-06T16:39:00Z,26.1914,-97.0507,1017.12,11111222 
TABS,ioos:station:wmo:42044:1,2002-10-06T17:09:00Z,26.1914,-97.0507,1016.93,11111222 
TABS,ioos:station:wmo:42044:1,2002-10-06T17:39:00Z,26.1914,-97.0507,1016.61,11111222 
TABS,ioos:station:wmo:42044:1,2002-10-06T18:09:00Z,26.1914,-97.0507,1016.36,11111222 
TABS,ioos:station:wmo:42044:1,2002-10-06T18:39:00Z,26.1914,-97.0507,1016.04,11111222 